| time (UTC) | temp F | wind direction | speed MPH | gust MPH | rain 1hr in | rain 24hr in | rain mn in | humidity % | barometer mb |
| 20260906101537 | 69 | 87 | 3.0 | 5.0 | 0.00 | 0.00 | 0.00 | 91 | 1017.4 |
| 20260906100033 | 69 | 0 | 1.0 | 4.0 | 0.00 | 0.00 | 0.00 | 91 | 1017.2 |
| 20260906094540 | 69 | 0 | 0.0 | 4.0 | 0.00 | 0.00 | 0.00 | 90 | 1017.2 |
| 20260906093038 | 69 | 0 | 0.0 | 0.0 | 0.00 | 0.00 | 0.00 | 90 | 1017.1 |
| 20260906091536 | 69 | 15 | 0.0 | 3.0 | 0.00 | 0.00 | 0.00 | 90 | 1017.1 |
| 20260906090036 | 70 | 0 | 1.0 | 3.0 | 0.00 | 0.00 | 0.00 | 89 | 1017.1 |
| 20260906084545 | 70 | 15 | 1.0 | 4.0 | 0.00 | 0.00 | 0.00 | 89 | 1017.1 |
| 20260906083036 | 70 | 15 | 1.0 | 4.0 | 0.00 | 0.00 | 0.00 | 89 | 1017.2 |
| 20260906081533 | 70 | 0 | 0.0 | 0.0 | 0.00 | 0.00 | 0.00 | 90 | 1017.1 |
| 20260906080035 | 70 | 0 | 0.0 | 3.0 | 0.00 | 0.00 | 0.00 | 90 | 1017.1 |
| 20260906074536 | 70 | 15 | 1.0 | 3.0 | 0.00 | 0.00 | 0.00 | 89 | 1016.9 |
| 20260906073039 | 70 | 15 | 2.0 | 5.0 | 0.00 | 0.00 | 0.00 | 89 | 1016.8 |
| 20260906071541 | 70 | 15 | 1.0 | 3.0 | 0.00 | 0.00 | 0.00 | 89 | 1017.0 |
| 20260906070035 | 70 | 0 | 0.0 | 4.0 | 0.00 | 0.00 | 0.00 | 89 | 1017.1 |
| 20260906064533 | 71 | 15 | 2.0 | 5.0 | 0.00 | 0.00 | 0.00 | 89 | 1017.1 |
| 20260906063035 | 71 | 15 | 0.0 | 5.0 | 0.00 | 0.00 | 0.00 | 89 | 1017.0 |
| 20260906061536 | 71 | 16 | 0.0 | 4.0 | 0.00 | 0.00 | 0.00 | 89 | 1017.0 |
| 20260906060037 | 71 | 16 | 0.0 | 5.0 | 0.00 | 0.00 | 0.00 | 88 | 1016.7 |
| 20260906054534 | 71 | 0 | 1.0 | 4.0 | 0.00 | 0.00 | 0.00 | 88 | 1016.5 |
| 20260906053033 | 71 | 47 | 1.0 | 5.0 | 0.00 | 0.00 | 0.00 | 87 | 1016.3 |
| 20260906051534 | 72 | 104 | 1.0 | 7.0 | 0.00 | 0.00 | 0.00 | 86 | 1016.2 |
| 20260906050035 | 72 | 147 | 2.0 | 11.0 | 0.00 | 0.00 | 0.00 | 85 | 1016.3 |
| 20260906044533 | 73 | 79 | 2.0 | 9.0 | 0.00 | 0.00 | 0.00 | 85 | 1016.2 |
| 20260906043033 | 73 | 341 | 4.0 | 9.0 | 0.00 | 0.00 | 0.00 | 86 | 1016.1 |
| 20260906041531 | 73 | 106 | 2.0 | 9.0 | 0.00 | 0.00 | 0.00 | 87 | 1015.9 |
| 20260906040037 | 73 | 30 | 2.0 | 9.0 | 0.00 | 0.00 | 0.00 | 88 | 1015.8 |
| 20260906034542 | 73 | 349 | 3.0 | 9.0 | 0.00 | 0.00 | 0.00 | 89 | 1015.8 |
| 20260906033032 | 73 | 323 | 1.0 | 5.0 | 0.00 | 0.00 | 0.00 | 90 | 1015.7 |
| 20260906031531 | 73 | 39 | 0.0 | 6.0 | 0.00 | 0.00 | 0.00 | 90 | 1015.5 |
| 20260906030036 | 73 | 350 | 3.0 | 9.0 | 0.00 | 0.00 | 0.00 | 89 | 1015.5 |
| 20260906024534 | 73 | 342 | 3.0 | 6.0 | 0.00 | 0.00 | 0.00 | 89 | 1015.7 |
| 20260906023033 | 72 | 333 | 4.0 | 11.0 | 0.00 | 0.00 | 0.00 | 89 | 1015.8 |
| 20260906021538 | 72 | 321 | 5.0 | 10.0 | 0.00 | 0.00 | 0.00 | 88 | 1015.7 |
| 20260906020044 | 72 | 323 | 5.0 | 9.0 | 0.00 | 0.00 | 0.00 | 88 | 1015.8 |
| 20260906014549 | 72 | 352 | 3.0 | 10.0 | 0.00 | 0.00 | 0.00 | 87 | 1015.4 |
| 20260906013033 | 73 | 5 | 6.0 | 13.0 | 0.00 | 0.00 | 0.00 | 87 | 1015.1 |
| 20260906011540 | 73 | 311 | 4.0 | 11.0 | 0.00 | 0.00 | 0.00 | 86 | 1014.9 |
| 20260906010035 | 73 | 341 | 4.0 | 13.0 | 0.00 | 0.00 | 0.00 | 86 | 1015.0 |
| 20260906004538 | 73 | 329 | 4.0 | 12.0 | 0.00 | 0.00 | 0.00 | 86 | 1014.9 |
| 20260906003048 | 74 | 360 | 5.0 | 13.0 | 0.00 | 0.00 | 0.00 | 86 | 1014.7 |
| 20260906001535 | 74 | 327 | 8.0 | 14.0 | 0.00 | 0.00 | 0.00 | 85 | 1014.5 |
| 20260906000036 | 74 | 340 | 6.0 | 14.0 | 0.00 | 0.00 | 0.00 | 84 | 1014.3 |
| 20260905234535 | 75 | 349 | 6.0 | 13.0 | 0.00 | 0.00 | 0.00 | 84 | 1014.4 |
| 20260905233035 | 75 | 352 | 5.0 | 15.0 | 0.00 | 0.00 | 0.00 | 84 | 1014.5 |
| 20260905231539 | 75 | 352 | 7.0 | 14.0 | 0.00 | 0.00 | 0.00 | 83 | 1014.3 |
| 20260905230035 | 76 | 343 | 6.0 | 14.0 | 0.00 | 0.00 | 0.00 | 83 | 1014.3 |
| 20260905224534 | 76 | 319 | 6.0 | 17.0 | 0.00 | 0.00 | 0.00 | 82 | 1014.3 |
| 20260905223032 | 77 | 311 | 6.0 | 16.0 | 0.00 | 0.00 | 0.00 | 81 | 1014.1 |
| 20260905221537 | 77 | 348 | 10.0 | 18.0 | 0.00 | 0.00 | 0.00 | 80 | 1014.2 |
| 20260905220041 | 77 | 331 | 9.0 | 18.0 | 0.00 | 0.00 | 0.00 | 80 | 1014.2 |
| 20260905214535 | 78 | 321 | 8.0 | 16.0 | 0.00 | 0.00 | 0.00 | 79 | 1014.1 |
| 20260905213040 | 78 | 311 | 9.0 | 16.0 | 0.00 | 0.00 | 0.00 | 79 | 1013.9 |
| 20260905211539 | 79 | 319 | 9.0 | 21.0 | 0.00 | 0.00 | 0.00 | 79 | 1013.8 |
| 20260905210031 | 80 | 347 | 10.0 | 16.0 | 0.00 | 0.00 | 0.00 | 77 | 1013.8 |
| 20260905204533 | 81 | 325 | 6.0 | 17.0 | 0.00 | 0.00 | 0.00 | 76 | 1013.8 |
| 20260905203034 | 81 | 23 | 10.0 | 17.0 | 0.00 | 0.00 | 0.00 | 77 | 1013.9 |
| 20260905201538 | 83 | 334 | 6.0 | 15.0 | 0.00 | 0.00 | 0.00 | 75 | 1013.9 |
| 20260905200050 | 83 | 326 | 6.0 | 16.0 | 0.00 | 0.00 | 0.00 | 74 | 1014.0 |
| 20260905194541 | 83 | 17 | 7.0 | 15.0 | 0.00 | 0.00 | 0.00 | 73 | 1013.8 |
| 20260905193034 | 84 | 333 | 10.0 | 16.0 | 0.00 | 0.00 | 0.00 | 72 | 1013.9 |
| 20260905191534 | 84 | 339 | 6.0 | 13.0 | 0.00 | 0.00 | 0.00 | 73 | 1013.9 |
| 20260905190036 | 85 | 339 | 7.0 | 14.0 | 0.00 | 0.00 | 0.00 | 72 | 1013.9 |
| 20260905184535 | 85 | 325 | 5.0 | 14.0 | 0.00 | 0.00 | 0.00 | 71 | 1013.8 |
| 20260905183034 | 86 | 17 | 7.0 | 15.0 | 0.00 | 0.00 | 0.00 | 71 | 1013.9 |
| 20260905181538 | 86 | 314 | 6.0 | 14.0 | 0.00 | 0.00 | 0.00 | 70 | 1013.9 |
| 20260905180034 | 86 | 352 | 8.0 | 14.0 | 0.00 | 0.00 | 0.00 | 73 | 1013.9 |
| 20260905174535 | 86 | 56 | 5.0 | 14.0 | 0.00 | 0.00 | 0.00 | 74 | 1013.8 |
| 20260905173033 | 86 | 311 | 5.0 | 11.0 | 0.00 | 0.00 | 0.00 | 74 | 1013.8 |
| 20260905171533 | 85 | 305 | 4.0 | 12.0 | 0.00 | 0.00 | 0.00 | 77 | 1014.0 |
| 20260905170043 | 85 | 352 | 4.0 | 11.0 | 0.00 | 0.00 | 0.00 | 80 | 1014.1 |
| 20260905164535 | 83 | 30 | 3.0 | 9.0 | 0.00 | 0.00 | 0.00 | 82 | 1014.3 |
| 20260905163037 | 82 | 305 | 4.0 | 10.0 | 0.00 | 0.00 | 0.00 | 83 | 1014.3 |
| 20260905161535 | 82 | 327 | 4.0 | 11.0 | 0.00 | 0.00 | 0.00 | 83 | 1014.4 |
| 20260905160044 | 82 | 333 | 6.0 | 11.0 | 0.00 | 0.00 | 0.00 | 84 | 1014.3 |
| 20260905154533 | 82 | 21 | 5.0 | 11.0 | 0.00 | 0.00 | 0.00 | 84 | 1014.2 |
| 20260905153038 | 83 | 325 | 3.0 | 10.0 | 0.00 | 0.00 | 0.00 | 84 | 1014.1 |
| 20260905151536 | 83 | 65 | 3.0 | 11.0 | 0.00 | 0.00 | 0.00 | 84 | 1014.0 |
| 20260905150036 | 83 | 336 | 3.0 | 7.0 | 0.00 | 0.00 | 0.00 | 84 | 1013.8 |
| 20260905144541 | 83 | 348 | 3.0 | 8.0 | 0.00 | 0.00 | 0.00 | 87 | 1013.6 |
| 20260905143048 | 82 | 352 | 2.0 | 5.0 | 0.00 | 0.00 | 0.00 | 90 | 1013.4 |
| 20260905141536 | 80 | 0 | 2.0 | 4.0 | 0.00 | 0.00 | 0.00 | 93 | 1013.5 |
| 20260905140035 | 79 | 0 | 0.0 | 0.0 | 0.00 | 0.00 | 0.00 | 95 | 1013.8 |
| 20260905134534 | 78 | 0 | 0.0 | 0.0 | 0.00 | 0.00 | 0.00 | 95 | 1013.6 |
| 20260905133033 | 78 | 0 | 0.0 | 3.0 | 0.00 | 0.00 | 0.00 | 95 | 1013.5 |
| 20260905131546 | 77 | 0 | 0.0 | 0.0 | 0.00 | 0.00 | 0.00 | 95 | 1013.4 |
| 20260905130034 | 77 | 0 | 0.0 | 0.0 | 0.00 | 0.00 | 0.00 | 95 | 1013.2 |
| 20260905124536 | 76 | 0 | 0.0 | 0.0 | 0.00 | 0.00 | 0.00 | 95 | 1013.2 |
| 20260905123037 | 75 | 0 | 0.0 | 0.0 | 0.00 | 0.00 | 0.00 | 95 | 1013.0 |
| 20260905121531 | 75 | 0 | 0.0 | 0.0 | 0.00 | 0.00 | 0.00 | 95 | 1012.9 |
| 20260905120034 | 74 | 0 | 0.0 | 3.0 | 0.00 | 0.00 | 0.00 | 94 | 1012.8 |
| 20260905114542 | 74 | 0 | 0.0 | 0.0 | 0.00 | 0.00 | 0.00 | 94 | 1012.7 |
| 20260905113038 | 74 | 0 | 0.0 | 0.0 | 0.00 | 0.00 | 0.00 | 94 | 1012.5 |
| 20260905111533 | 74 | 0 | 0.0 | 0.0 | 0.00 | 0.00 | 0.00 | 94 | 1012.5 |
| 20260905110035 | 74 | 0 | 0.0 | 0.0 | 0.00 | 0.00 | 0.00 | 93 | 1012.4 |
| 20260905104532 | 75 | 0 | 0.0 | 0.0 | 0.00 | 0.00 | 0.00 | 94 | 1012.4 |
| 20260905103033 | 74 | 0 | 0.0 | 0.0 | 0.00 | 0.00 | 0.00 | 94 | 1012.5 |